Orbital Elements at Epoch 2459200.5 (2020-Dec-17.0) TDB
Reference: JPL 23 (heliocentric ecliptic J2000)
Element | Value | Uncertainty (1-sigma) | Units |
e | .1919328798295251 | 4.6191e-08 | |
a | 2.277710131938898 | 1.0397e-08 | au |
q | 1.840542666898978 | 1.0911e-07 | au |
i | 4.971376566491156 | 4.7974e-06 | deg |
node | 182.0993141421743 | 4.4721e-05 | deg |
peri | 160.5513201683552 | 4.59e-05 | deg |
M | 185.8421822889308 | 1.1795e-05 | deg |
tp | 2459807.916494018697 (2022-Aug-16.41649402) | 4.3464e-05 | TDB |
period | 1255.584967247971 3.44 | 8.5974e-06 2.354e-08 | d yr |
n | .2867189472561614 | 1.9633e-09 | deg/d |
Q | 2.714877596978818 | 1.2393e-08 | au |
|
| | Orbit Determination Parameters
Additional Information
|